Flag for Cyprus Weather past 2 weeks in Nicosia, Cyprus

Now
46 °F

Passing clouds.


Feels Like: 44 °F
Forecast: 48 / 62 °F
Wind: 6 mph from West

Location: Ercan

Current Time: Dec 26, 2014 at 2:14:16 AM

Latest Report: Dec 26, 2014 at 1:50 AM


Visibility: N/A

Pressure: 30.12 "Hg

Humidity: 87%

Dew point: 43 °F

Location of NicosiaLocation

Historic Weather in Nicosia — Graph

°F

Nicosia temperature yesterday

Maximum temperature yesterday: 63 °F (at 12:50 PM)
Minimum temperature yesterday: 41 °F (at 3:20 AM)
Average temperature yesterday: 51 °F

Past Weeks' High & Low Weather Summary

 TemperatureHumidityPressure
High68 °F (Dec 11, 12:20 PM)100% (Dec 11, 7:20 AM)30.30 "Hg (Dec 11, 7:20 AM)
Low39 °F (Dec 23, 6:20 AM)39% (Dec 23, 2:50 PM)29.83 "Hg (Dec 12, 1:50 PM)
Average54 °F80%30.12 "Hg
* Reported Dec 11 12:20 AM — Dec 26 12:50 AM, Nicosia, Weather by CustomWeather, © 2014

Note: Actual official high and low records may vary slightly from our data, if they occured in-between our weather recording intervals... More about our weather records

Advertising

Nicosia weather history for previous 24 hours

 ConditionsComfort  
Time TempWeatherWind HumidityBarometerVisibility
12:50 AM
Dec 26
46 °FPassing clouds.8 mph93%30.15 "HgN/A
12:20 AM46 °FPassing clouds.6 mph87%30.15 "HgN/A
11:50 PM
Dec 25
48 °FPassing clouds.6 mph87%30.15 "HgN/A
11:20 PM50 °FPassing clouds.6 mph82%30.15 "HgN/A
10:50 PM48 °FPassing clouds.6 mph87%30.15 "HgN/A
10:20 PM48 °FPassing clouds.5 mph87%30.18 "HgN/A
9:50 PM50 °FPassing clouds.6 mph88%30.18 "HgN/A
9:20 PM52 °FPassing clouds.7 mph88%30.18 "HgN/A
8:50 PM50 °FPassing clouds.6 mph88%30.18 "HgN/A
8:20 PM52 °FPassing clouds.6 mph82%30.18 "HgN/A
7:50 PM54 °FPassing clouds.5 mph77%30.18 "HgN/A
7:20 PM54 °FPassing clouds.No wind82%30.21 "HgN/A
6:50 PM54 °FPassing clouds.3 mph77%30.21 "HgN/A
6:20 PM55 °FPassing clouds.5 mph77%30.21 "HgN/A
5:50 PM55 °FPassing clouds.8 mph77%30.21 "HgN/A
5:20 PM55 °FPassing clouds.7 mph82%30.21 "HgN/A
4:50 PM57 °FPassing clouds.8 mph72%30.21 "HgN/A
4:20 PM59 °FScattered clouds.7 mph72%30.21 "HgN/A
3:50 PM59 °FScattered clouds.8 mph72%30.21 "HgN/A
3:20 PM59 °FScattered clouds.10 mph72%30.21 "HgN/A
2:50 PM61 °FScattered clouds.12 mph68%30.21 "HgN/A
2:20 PM61 °FScattered clouds.12 mph68%30.21 "HgN/A
1:50 PM63 °FScattered clouds.12 mph64%30.21 "HgN/A
1:20 PM63 °FScattered clouds.9 mph64%30.21 "HgN/A
12:50 PM63 °FScattered clouds.3 mph68%30.24 "HgN/A
12:20 PM61 °FScattered clouds.7 mph77%30.24 "HgN/A
11:50 AM57 °FScattered clouds.10 mph82%30.24 "HgN/A
11:20 AM55 °FBroken clouds.9 mph88%30.27 "HgN/A
10:50 AM54 °FBroken clouds.9 mph88%30.27 "HgN/A
10:20 AM54 °FScattered clouds.8 mph88%30.27 "HgN/A
9:50 AM55 °FScattered clouds.7 mph82%30.30 "HgN/A
9:20 AM54 °FScattered clouds.6 mph88%30.30 "HgN/A
8:50 AM52 °FScattered clouds.8 mph88%30.30 "HgN/A
8:20 AM50 °FScattered clouds.8 mph88%30.30 "HgN/A
7:50 AM46 °FScattered clouds.6 mph93%30.30 "HgN/A
7:20 AM45 °FPassing clouds.7 mph93%30.30 "HgN/A
6:50 AM45 °FPassing clouds.8 mph93%30.30 "Hg6 mi
6:20 AM45 °FPassing clouds.8 mph93%30.30 "Hg6 mi
5:20 AM45 °FPassing clouds.7 mph93%30.30 "Hg5 mi
4:50 AM41 °FPassing clouds.6 mph100%30.30 "Hg5 mi
4:20 AM41 °FPassing clouds.5 mph93%30.30 "Hg5 mi
3:50 AM43 °FPassing clouds.6 mph93%30.30 "HgN/A
3:20 AM41 °FPassing clouds.7 mph93%30.30 "HgN/A
2:50 AM43 °FPassing clouds.7 mph93%30.30 "HgN/A
2:20 AM43 °FClear.5 mph93%30.30 "Hg10 mi
Weather by CustomWeather, © 2014

See weather overviewHow to use our weather pages